This is the latest recevied weather packets stored in our database for station/object N6GPM. If no packets are shown the sender has not sent any weather packets the latest 10 day(s).
| Time | Temp. | Humidity | Pressure | Rain* | Wind** | Luminosity | Snow |
|---|---|---|---|---|---|---|---|
| 1777836728 | 14.44° C | 88% | 1017.6 hPa | 0 mm | - | 337 W/m² | - |
| 1777836423 | 14.44° C | 89% | 1017.6 hPa | 0 mm | - | 209 W/m² | - |
| 1777836119 | 14.44° C | 88% | 1017.5 hPa | 0 mm | - | 192 W/m² | - |
| 1777835815 | 14.44° C | 88% | 1017.6 hPa | 0 mm | - | 215 W/m² | - |
| 1777835513 | 14.44° C | 87% | 1017.9 hPa | 0 mm | - | 121 W/m² | - |
| 1777835210 | 14.44° C | 87% | 1017.8 hPa | 0 mm | - | 148 W/m² | - |
| 1777834906 | 15° C | 87% | 1017.9 hPa | 0 mm | - | 239 W/m² | - |
| 1777834603 | 15° C | 86% | 1017.7 hPa | 0 mm | - | 227 W/m² | - |
| 1777834298 | 15° C | 86% | 1017.7 hPa | 0 mm | - | 248 W/m² | - |
| 1777833994 | 15° C | 87% | 1017.9 hPa | 0 mm | - | 248 W/m² | - |
| 1777833690 | 15° C | 87% | 1017.7 hPa | 0 mm | - | 223 W/m² | - |
| 1777833387 | 14.44° C | 87% | 1017.7 hPa | 0 mm | - | 262 W/m² | - |
| 1777833084 | 14.44° C | 88% | 1017.7 hPa | 0 mm | - | 374 W/m² | - |
| 1777832782 | 14.44° C | 88% | 1017.8 hPa | 0 mm | - | 223 W/m² | - |
| 1777832480 | 14.44° C | 88% | 1017.9 hPa | 0 mm | - | 189 W/m² | - |
| 1777832177 | 14.44° C | 88% | 1017.7 hPa | 0 mm | - | 203 W/m² | - |
| 1777831874 | 14.44° C | 88% | 1017.8 hPa | 0 mm | - | 212 W/m² | - |
| 1777831571 | 15° C | 87% | 1017.8 hPa | 0 mm | - | 195 W/m² | - |
| 1777831269 | 14.44° C | 86% | 1017.9 hPa | 0 mm | - | 176 W/m² | - |
| 1777830965 | 15° C | 86% | 1017.8 hPa | 0 mm | - | 171 W/m² | - |
| 1777830663 | 15.56° C | 85% | 1017.7 hPa | 0 mm | - | 149 W/m² | - |
| 1777830359 | 15.56° C | 82% | 1017.9 hPa | 0 mm | - | 145 W/m² | - |
| 1777830056 | 15.56° C | 79% | 1018 hPa | 0 mm | - | 140 W/m² | - |
| 1777829751 | 15° C | 79% | 1017.6 hPa | 0 mm | - | 136 W/m² | - |
| 1777829448 | 15° C | 80% | 1017.7 hPa | 0 mm | - | 135 W/m² | - |
* Rain latest hour (hover to see other rain measurements)
** Current wind speed in m/s (hover to see current wind gust speed)